Eagle River, WI

4:22 AM CDT on July 25, 2017 (GMT -0500)
Eagle River Union

Weather History for KEGV - September, 2013

Change the Weather History Date:

Wednesday, September 4, 2013

  Actual Average Record
Temperature  
Mean Temperature 56 °F -  
Max Temperature 69 °F 69 °F 87 °F (2007)
Min Temperature 44 °F 45 °F 35 °F (1997)
Degree Days  
Heating Degree Days 9    
Growing Degree Days 6 (Base 50)    
Moisture  
Dew Point 51 °F    
Average Humidity 78    
Maximum Humidity 100    
Minimum Humidity 42    
Precipitation  
Precipitation 0.00 in - - ()
Sea Level Pressure  
Sea Level Pressure 30.11 in    
Wind  
Wind Speed 5 mph (NNW)    
Max Wind Speed 10 mph    
Max Gust Speed -    
Visibility 10 miles    
Events      
Averages and records for this station are not official NWS values.
T = Trace of Precipitation, MM = Missing Value Source: NWS Daily Summary

Daily Weather History Graph

Daily Weather History Graph

Search for Another Location

Airport or City:

Trip Planner

Search our weather history database for the weather conditions in past years. The results will help you decide how hot, cold, wet, or windy it might be!

Date:

Astronomy

Sep. 04, 2013 Rise Set
Actual Time 6:21 AM CDT 7:29 PM CDT
Civil Twilight 5:51 AM CDT 7:59 PM CDT
Nautical Twilight 5:14 AM CDT 8:36 PM CDT
Astronomical Twilight 4:35 AM CDT 9:14 PM CDT
Moon 5:34 AM CDT (9/4) 6:46 PM CDT (9/4)
Length of Visible Light 14h 08m
Length of Day
13h 07m
Waning Crescent, 1% of the Moon is Illuminated
Sep 4
Waning Crescent
Sep 5
New
Sep 12
First Quarter
Sep 19
Full
Sep 26
Last Quarter

Hourly Weather History & Observations

Time (CDT) Temp. Dew Point Humidity Pressure Visibility Wind Dir Wind Speed Gust Speed Precip Events Conditions
12:15 AM 52.5 °F 52.0 °F 98% 29.99 in 10.0 mi SW 3.5 mph - N/A   Clear
12:35 AM 55.8 °F 52.9 °F 90% 30.00 in 10.0 mi Calm Calm - N/A   Clear
12:55 AM 55.4 °F 52.9 °F 91% 30.00 in 10.0 mi SW 3.5 mph - N/A   Clear
1:15 AM 53.8 °F 52.3 °F 95% 29.99 in 10.0 mi WSW 4.6 mph - N/A   Clear
1:35 AM 53.6 °F 52.0 °F 94% 29.99 in 10.0 mi WSW 6.9 mph - N/A   Clear
1:55 AM 53.6 °F 52.2 °F 95% 29.99 in 10.0 mi WSW 5.8 mph - N/A   Clear
2:15 AM 54.7 °F 52.9 °F 94% 29.99 in 10.0 mi WSW 4.6 mph - N/A   Clear
2:35 AM 54.9 °F 52.9 °F 93% 29.99 in 10.0 mi WSW 5.8 mph - N/A   Clear
2:55 AM 54.0 °F 52.5 °F 95% 29.99 in 10.0 mi WSW 5.8 mph - N/A   Clear
3:15 AM 53.8 °F 52.9 °F 97% 29.99 in 10.0 mi West 5.8 mph - N/A   Clear
3:35 AM 57.6 °F 54.3 °F 89% 29.99 in 10.0 mi West 6.9 mph - N/A   Scattered Clouds
3:55 AM 59.5 °F 54.5 °F 83% 29.99 in 10.0 mi West 5.8 mph - N/A   Mostly Cloudy
4:15 AM 59.2 °F 54.9 °F 86% 30.00 in 10.0 mi West 6.9 mph - N/A   Scattered Clouds
4:35 AM 59.0 °F 55.6 °F 88% 30.01 in 10.0 mi West 4.6 mph - N/A   Clear
4:55 AM 58.5 °F 55.4 °F 90% 30.01 in 10.0 mi West 4.6 mph - N/A   Clear
5:15 AM 56.5 °F 54.9 °F 94% 30.01 in 10.0 mi West 3.5 mph - N/A   Clear
5:35 AM 56.3 °F 54.9 °F 95% 30.02 in 10.0 mi Calm Calm - N/A   Clear
5:55 AM 56.7 °F 55.2 °F 95% 30.03 in 10.0 mi Calm Calm - N/A   Mostly Cloudy
6:15 AM 56.7 °F 55.8 °F 97% 30.04 in 10.0 mi Calm Calm - N/A   Overcast
6:35 AM 57.2 °F 56.3 °F 97% 30.05 in 10.0 mi Calm Calm - N/A   Overcast
6:55 AM 57.9 °F 57.4 °F 98% 30.06 in 10.0 mi Calm Calm - N/A   Overcast
7:15 AM 59.0 °F 57.7 °F 96% 30.07 in 10.0 mi Calm Calm - N/A   Overcast
7:35 AM 59.4 °F 58.1 °F 96% 30.07 in 10.0 mi North 5.8 mph - N/A   Overcast
7:55 AM 59.0 °F 58.1 °F 97% 30.09 in 10.0 mi NE 5.8 mph - N/A   Overcast
8:15 AM 58.3 °F 57.4 °F 97% 30.10 in 10.0 mi NE 10.4 mph - N/A   Overcast
8:35 AM 57.7 °F 57.0 °F 97% 30.10 in 10.0 mi NE 9.2 mph - N/A   Overcast
8:55 AM 57.4 °F 56.7 °F 97% 30.10 in 10.0 mi NE 5.8 mph - N/A   Overcast
9:15 AM 57.4 °F 56.5 °F 97% 30.11 in 10.0 mi NE 8.1 mph - N/A   Overcast
9:35 AM 57.7 °F 56.1 °F 94% 30.12 in 10.0 mi NNE 9.2 mph - N/A   Overcast
9:55 AM 57.4 °F 55.6 °F 94% 30.13 in 10.0 mi NE 9.2 mph - N/A   Overcast
10:15 AM 58.1 °F 53.4 °F 84% 30.14 in 10.0 mi NE 8.1 mph - N/A   Overcast
10:35 AM 59.4 °F 53.4 °F 81% 30.14 in 10.0 mi NE 5.8 mph - N/A   Overcast
10:55 AM 60.3 °F 52.2 °F 75% 30.14 in 10.0 mi NE 5.8 mph - N/A   Overcast
11:15 AM 62.2 °F 51.8 °F 69% 30.14 in 10.0 mi North 5.8 mph - N/A   Mostly Cloudy
11:35 AM 64.0 °F 52.0 °F 65% 30.14 in 10.0 mi North 5.8 mph - N/A   Scattered Clouds
11:55 AM 64.8 °F 51.6 °F 62% 30.14 in 10.0 mi North 5.8 mph - N/A   Scattered Clouds
12:15 PM 64.8 °F 51.4 °F 62% 30.15 in 10.0 mi North 8.1 mph - N/A   Scattered Clouds
12:35 PM 64.6 °F 51.3 °F 62% 30.15 in 10.0 mi North 5.8 mph - N/A   Mostly Cloudy
12:55 PM 65.7 °F 51.3 °F 60% 30.14 in 10.0 mi North 8.1 mph - N/A   Overcast
1:15 PM 66.9 °F 49.5 °F 53% 30.15 in 10.0 mi NNW 8.1 mph - N/A   Scattered Clouds
1:35 PM 67.6 °F 49.3 °F 52% 30.14 in 10.0 mi North 4.6 mph - N/A   Clear
1:55 PM 68.0 °F 49.3 °F 51% 30.14 in 10.0 mi NNW 8.1 mph - N/A   Clear
2:15 PM 68.0 °F 49.6 °F 52% 30.14 in 10.0 mi NNW 4.6 mph - N/A   Scattered Clouds
2:35 PM 68.9 °F 48.2 °F 48% 30.14 in 10.0 mi North 5.8 mph - N/A   Clear
2:55 PM 68.9 °F 48.2 °F 48% 30.13 in 10.0 mi NNW 8.1 mph - N/A   Clear
3:15 PM 68.4 °F 47.7 °F 48% 30.13 in 10.0 mi North 8.1 mph - N/A   Clear
3:35 PM 68.7 °F 47.7 °F 47% 30.14 in 10.0 mi NNW 6.9 mph - N/A   Clear
3:55 PM 68.9 °F 45.7 °F 43% 30.14 in 10.0 mi North 9.2 mph - N/A   Clear
4:15 PM 68.7 °F 44.4 °F 42% 30.14 in 10.0 mi NW 6.9 mph - N/A   Clear
4:35 PM 68.2 °F 44.6 °F 43% 30.14 in 10.0 mi North 6.9 mph - N/A   Clear
4:55 PM 67.8 °F 45.3 °F 44% 30.14 in 10.0 mi North 5.8 mph - N/A   Clear
5:15 PM 68.0 °F 46.8 °F 47% 30.13 in 10.0 mi NNE 6.9 mph - N/A   Clear
5:35 PM 68.0 °F 46.4 °F 46% 30.13 in 10.0 mi NNW 4.6 mph - N/A   Clear
5:55 PM 67.3 °F 48.2 °F 50% 30.13 in 10.0 mi North 8.1 mph - N/A   Clear
6:15 PM 66.0 °F 48.2 °F 53% 30.14 in 10.0 mi North 6.9 mph - N/A   Clear
6:35 PM 64.6 °F 47.1 °F 53% 30.15 in 10.0 mi North 5.8 mph - N/A   Clear
6:55 PM 63.0 °F 46.4 °F 55% 30.15 in 10.0 mi NNW 4.6 mph - N/A   Clear
7:15 PM 61.0 °F 47.3 °F 61% 30.15 in 10.0 mi North 3.5 mph - N/A   Clear
7:35 PM 58.6 °F 48.6 °F 69% 30.16 in 10.0 mi North 3.5 mph - N/A   Clear
7:55 PM 57.6 °F 49.1 °F 73% 30.16 in 10.0 mi North 3.5 mph - N/A   Clear
8:15 PM 56.5 °F 48.6 °F 75% 30.17 in 10.0 mi North 4.6 mph - N/A   Clear
8:35 PM 55.0 °F 47.7 °F 76% 30.18 in 10.0 mi North 3.5 mph - N/A   Clear
8:55 PM 53.6 °F 47.3 °F 79% 30.18 in 10.0 mi NNE 3.5 mph - N/A   Clear
9:15 PM 50.9 °F 46.0 °F 83% 30.18 in 10.0 mi Calm Calm - N/A   Clear
9:35 PM 50.4 °F 48.6 °F 94% 30.20 in 10.0 mi Calm Calm - N/A   Clear
9:55 PM 48.0 °F 47.3 °F 97% 30.20 in 10.0 mi Calm Calm - N/A   Clear
10:15 PM 46.2 °F 45.9 °F 99% 30.20 in 10.0 mi Calm Calm - N/A   Clear
10:35 PM 46.2 °F 46.2 °F 100% 30.21 in 7.0 mi Calm Calm - N/A   Clear
10:55 PM 45.0 °F 44.8 °F 99% 30.20 in 10.0 mi Calm Calm - N/A   Clear
11:15 PM 44.8 °F 44.2 °F 98% 30.21 in 10.0 mi Calm Calm - N/A   Clear
11:35 PM 44.4 °F 44.4 °F 100% 30.21 in 1.8 mi Calm Calm - N/A   Scattered Clouds
11:55 PM 44.4 °F 44.4 °F 100% 30.21 in 10.0 mi Calm Calm - N/A   Clear